Flag for Germany Weather for the Past 2 Weeks in Lutherstadt Eisleben, Saxony-Anhalt, Germany

Now
48 °F

Sunny.


Feels Like: 48 °F
Forecast: 36 / 62 °F
Wind: 1 mph from North

Location: Leipzig-Schkeuditz

Current Time: May 4, 2016 at 9:48:37 PM

Latest Report: May 4, 2016 at 8:50 PM


Visibility: 10 mi

Pressure: 30.36 "Hg

Humidity: 76%

Dew Point: 41 °F

Location of Lutherstadt EislebenLocation

Historic Weather in Lutherstadt Eisleben — Graph

°F

Lutherstadt Eisleben Temperature Yesterday

Maximum temperature yesterday: 64 °F (at 2:50 PM)
Minimum temperature yesterday: 43 °F (at 4:20 AM)
Average temperature yesterday: 51 °F

High & Low Weather Summary for the Past Weeks

 TemperatureHumidityPressure
High66 °F (Apr 30, 2:20 PM)100% (Apr 25, 3:20 AM)30.42 "Hg (Apr 25, 3:20 AM)
Low28 °F (Apr 25, 2:20 AM)32% (Apr 30, 1:50 PM)29.47 "Hg (Apr 26, 3:20 AM)
Average46 °F68%30.00 "Hg
* Reported Apr 19 8:20 PM — May 4 8:20 PM, Lutherstadt Eisleben, Weather by CustomWeather, © 2016

Note: Actual official high and low records may vary slightly from our data, if they occured in-between our weather recording intervals... More about our weather records

Advertising

Lutherstadt Eisleben Weather History for the Previous 24 Hours

Scroll right to see more
 ConditionsComfort  
Time TempWeatherWind HumidityBarometerVisibility
8:20 PM
Wed, May 4
50 °FSunny.2 mph71%30.36 "Hg10 mi
7:50 PM52 °FScattered clouds.2 mph62%30.36 "HgN/A
7:20 PM54 °FScattered clouds.3 mph58%30.36 "HgN/A
6:50 PM54 °FScattered clouds.5 mph58%30.36 "HgN/A
6:20 PM54 °FScattered clouds.9 mph67%30.36 "HgN/A
5:50 PM52 °FBroken clouds.13 mph72%30.36 "HgN/A
5:20 PM52 °FBroken clouds.10 mph67%30.36 "HgN/A
4:20 PM54 °FBroken clouds.8 mph54%30.36 "HgN/A
3:50 PM54 °FScattered clouds.9 mph54%30.36 "HgN/A
3:20 PM54 °FBroken clouds.9 mph54%30.36 "HgN/A
2:50 PM55 °FBroken clouds.13 mph55%30.36 "HgN/A
2:20 PM54 °FBroken clouds.10 mph58%30.36 "HgN/A
1:20 PM52 °FBroken clouds.14 mph62%30.36 "HgN/A
12:50 PM52 °FPartly sunny.10 mph62%30.36 "HgN/A
12:20 PM52 °FPartly sunny.15 mph72%30.36 "HgN/A
11:20 AM48 °FPartly sunny.15 mph71%30.36 "HgN/A
10:50 AM48 °FBroken clouds.14 mph71%30.36 "HgN/A
9:50 AM46 °FBroken clouds.16 mph82%30.36 "HgN/A
9:20 AM45 °FPartly sunny.16 mph87%30.36 "HgN/A
8:20 AM43 °FPartly sunny.15 mph87%30.33 "HgN/A
7:50 AM43 °FBroken clouds.15 mph87%30.33 "HgN/A
7:20 AM41 °FBroken clouds.13 mph93%30.33 "HgN/A
6:20 AM41 °FPassing clouds.13 mph87%30.30 "HgN/A
5:50 AM41 °FPassing clouds.14 mph93%30.30 "HgN/A
5:20 AM41 °FPartly cloudy.14 mph93%30.30 "HgN/A
4:50 AM43 °FPartly cloudy.14 mph87%30.30 "HgN/A
4:20 AM43 °FPartly cloudy.15 mph87%30.27 "HgN/A
3:50 AM43 °FPartly cloudy.15 mph87%30.27 "HgN/A
3:20 AM45 °FPartly cloudy.14 mph87%30.27 "HgN/A
2:50 AM45 °FPartly cloudy.14 mph87%30.27 "HgN/A
2:20 AM46 °FPartly cloudy.15 mph82%30.24 "HgN/A
1:50 AM46 °FPassing clouds.14 mph82%30.24 "HgN/A
12:50 AM45 °FPassing clouds.7 mph93%30.24 "HgN/A
12:20 AM46 °FPassing clouds.7 mph93%30.24 "HgN/A
11:50 PM
Tue, May 3
46 °FPassing clouds.6 mph93%30.24 "HgN/A
11:20 PM46 °FLight rain. Passing clouds.7 mph87%30.21 "HgN/A
10:50 PM46 °FLight rain. Passing clouds.7 mph87%30.21 "HgN/A
10:20 PM46 °FLight rain. Passing clouds.12 mph87%30.21 "HgN/A
9:50 PM46 °FLight rain. Partly cloudy.13 mph87%30.18 "HgN/A
9:20 PM46 °FLight rain. Broken clouds.15 mph82%30.18 "HgN/A
Weather by CustomWeather, © 2016

See weather overviewHow to use our weather pages